Location: Waco, TX
(31.5480°N, 97.1670°W)
Time: 14:51:28
(UTC-05:00)

ISS - Pass Details

Date: 16 August 2019
Orbit: 410 x 421 km, 51.6° (Epoch: 22 August)

Event Time Altitude Azimuth Distance (km) Brightness Sun altitude
Rises 09:34:54 0° 218° (SW) 2,336 -0.3 32.9°
Reaches altitude 10° 09:37:00 10° 215° (SW) 1,479 -1.2 33.4°
Maximum altitude 09:40:17 65° 133° (SE) 460 -2.6 34.1°
Drops below altitude 10° 09:43:36 10° 51° (NE) 1,493 -0.2 34.8°
Sets 09:45:43 0° 48° (NE) 2,361 0.6 35.2°
